Le nostre stazioni meteo in Italia

Pubblicità
Il mio iltempo24.it
Serralta di S. Vito, Italia (16364): Temperatura & dewpoint: 29.05.2020 19:00:00 - 04.06.2020 19:00:00 (CEST)Serralta di S. Vito, Italia (16364): velocità del vento: 29.05.2020 19:00:00 - 04.06.2020 19:00:00 (CEST)Serralta di S. Vito, Italia (16364): direzione del vento: 29.05.2020 19:00:00 - 04.06.2020 19:00:00 (CEST)Serralta di S. Vito, Italia (16364): precipitazioni: 29.05.2020 19:00:00 - 04.06.2020 19:00:00 (CEST)
Data & Tempo tt [°C] td [°C] ff [km/h] ff [kn] dd rr [mm]
04.06.2020 19:00:00 - - - - - -
04.06.2020 18:00:00 20,7 14,5 0 0 N -
04.06.2020 17:00:00 21,0 14,8 0 0 N -
04.06.2020 16:00:00 19,0 12,9 0 0 N -
04.06.2020 15:00:00 19,6 13,9 2 1 E -
04.06.2020 14:00:00 19,5 13,3 4 2 ESE 0,0
04.06.2020 13:00:00 19,9 13,0 0 0 N -
04.06.2020 12:00:00 19,2 12,2 0 0 N -
04.06.2020 11:00:00 18,6 12,1 4 2 O -
04.06.2020 10:00:00 17,3 11,1 4 2 OSO -
04.06.2020 09:00:00 15,4 9,9 9 5 SO -
04.06.2020 08:00:00 13,9 9,9 9 5 OSO 0,0
04.06.2020 07:00:00 12,7 8,9 8 4 OSO -
04.06.2020 06:00:00 11,6 8,4 8 4 OSO -
04.06.2020 05:00:00 11,1 7,9 4 2 OSO -
04.06.2020 04:00:00 10,5 7,7 2 1 SO -
04.06.2020 03:00:00 10,9 8,3 4 2 SO -
04.06.2020 02:00:00 10,0 7,2 0 0 N 0,0
04.06.2020 01:00:00 9,7 6,9 0 0 N -
04.06.2020 00:00:00 10,3 7,3 0 0 N -
03.06.2020 23:00:00 10,8 7,4 4 2 O -
03.06.2020 22:00:00 10,6 7,3 4 2 OSO -
03.06.2020 21:00:00 11,7 6,1 4 2 SO -
03.06.2020 20:00:00 12,9 9,5 0 0 N 0,0
03.06.2020 19:00:00 15,3 11,5 0 0 N -
03.06.2020 18:00:00 16,3 12,8 2 1 O -
03.06.2020 17:00:00 15,9 12,0 5 3 ONO -
03.06.2020 16:00:00 16,8 13,1 5 3 SO -
03.06.2020 15:00:00 15,9 12,2 8 4 OSO -
03.06.2020 14:00:00 16,4 12,9 8 4 ONO 0,0
03.06.2020 13:00:00 16,2 13,0 5 3 NO -
03.06.2020 12:00:00 15,6 12,5 4 2 OSO -
03.06.2020 11:00:00 15,0 13,0 4 2 O -
03.06.2020 10:00:00 13,5 11,4 4 2 O -
03.06.2020 09:00:00 12,0 9,9 5 3 O -
03.06.2020 08:00:00 11,5 9,4 4 2 O 0,0
03.06.2020 07:00:00 11,0 8,9 8 4 O -
03.06.2020 06:00:00 10,7 8,6 8 4 ONO -
03.06.2020 05:00:00 10,7 8,6 9 5 O -
03.06.2020 04:00:00 10,8 8,7 5 3 OSO -
03.06.2020 03:00:00 10,5 8,4 9 5 ONO -
03.06.2020 02:00:00 10,0 7,9 9 5 O 0,0
03.06.2020 01:00:00 9,7 7,6 9 5 SO -
03.06.2020 00:00:00 9,7 7,6 9 5 O -
02.06.2020 23:00:00 10,5 8,4 9 5 OSO -
02.06.2020 22:00:00 10,8 8,7 9 5 O -
02.06.2020 21:00:00 10,8 8,9 11 6 O -
02.06.2020 20:00:00 11,0 8,7 11 6 SSO 0,0
02.06.2020 19:00:00 11,7 8,9 11 6 OSO -
02.06.2020 18:00:00 13,5 9,9 11 6 ONO -
02.06.2020 17:00:00 14,2 10,6 11 6 ONO -
02.06.2020 16:00:00 14,2 11,0 9 5 ONO -
02.06.2020 15:00:00 14,1 10,7 11 6 ONO -
02.06.2020 14:00:00 15,1 11,5 9 5 OSO 0,0
02.06.2020 13:00:00 14,1 10,1 9 5 N -
02.06.2020 12:00:00 14,3 9,5 9 5 ONO -
02.06.2020 11:00:00 13,9 10,3 5 3 O -
02.06.2020 10:00:00 13,2 10,2 5 3 SO -
02.06.2020 09:00:00 12,0 9,4 4 2 OSO -
02.06.2020 08:00:00 10,6 8,7 0 0 N 0,0
02.06.2020 07:00:00 9,1 7,2 0 0 N -
02.06.2020 06:00:00 7,8 5,7 0 0 N -
02.06.2020 05:00:00 7,3 5,3 2 1 O -
02.06.2020 04:00:00 9,4 7,3 4 2 ONO -
02.06.2020 03:00:00 10,0 7,9 2 1 NO -
02.06.2020 02:00:00 10,0 7,9 2 1 O 0,0
02.06.2020 01:00:00 10,1 8,0 2 1 ONO -
02.06.2020 00:00:00 10,1 8,0 0 0 N -
01.06.2020 23:00:00 10,2 8,1 0 0 N -
01.06.2020 22:00:00 10,2 8,3 2 1 O -
01.06.2020 21:00:00 9,9 7,6 5 3 ONO -
01.06.2020 20:00:00 10,3 7,7 5 3 OSO -
01.06.2020 19:00:00 11,6 8,8 8 4 ONO -
01.06.2020 18:00:00 12,7 9,9 11 6 O -
01.06.2020 17:00:00 13,0 10,1 9 5 OSO -
01.06.2020 16:00:00 13,0 10,3 9 5 ONO -
01.06.2020 15:00:00 13,4 10,5 8 4 OSO -
01.06.2020 14:00:00 13,0 10,3 9 5 NNO -
01.06.2020 13:00:00 13,3 10,3 4 2 O -
01.06.2020 12:00:00 13,4 11,4 2 1 OSO -
01.06.2020 11:00:00 11,9 9,8 5 3 ONO -
01.06.2020 10:00:00 9,8 7,7 0 0 N -
01.06.2020 09:00:00 8,3 6,2 2 1 S -
01.06.2020 08:00:00 8,9 6,8 0 0 N -
01.06.2020 07:00:00 9,6 7,5 8 4 O -
01.06.2020 06:00:00 9,5 7,4 9 5 O -
01.06.2020 05:00:00 9,6 7,5 11 6 O -
01.06.2020 04:00:00 9,3 7,6 5 3 SO -
01.06.2020 03:00:00 9,2 7,3 2 1 O -
01.06.2020 02:00:00 8,8 6,6 4 2 OSO 0,0
01.06.2020 01:00:00 9,1 7,2 0 0 N -
01.06.2020 00:00:00 9,7 7,8 0 0 N -
31.05.2020 23:00:00 10,2 8,3 0 0 N -
31.05.2020 22:00:00 10,4 8,1 0 0 N -
31.05.2020 21:00:00 10,7 8,3 0 0 N -
31.05.2020 20:00:00 11,3 8,5 0 0 N 0,0
31.05.2020 19:00:00 12,3 9,3 0 0 N -
31.05.2020 18:00:00 12,4 9,0 2 1 O -
31.05.2020 17:00:00 12,9 9,3 5 3 ONO -
31.05.2020 16:00:00 15,7 10,4 5 3 O -
31.05.2020 15:00:00 15,8 11,7 4 2 SO -
31.05.2020 14:00:00 14,6 9,8 5 3 OSO 0,0
31.05.2020 13:00:00 16,2 11,1 4 2 NO -
31.05.2020 12:00:00 15,6 10,7 4 2 O -
31.05.2020 11:00:00 14,6 11,3 4 2 OSO -
31.05.2020 10:00:00 12,9 10,8 2 1 O -
31.05.2020 09:00:00 11,6 9,5 0 0 N -
31.05.2020 08:00:00 10,5 8,4 4 2 O 0,0
31.05.2020 07:00:00 9,7 7,6 9 5 OSO -
31.05.2020 06:00:00 10,2 8,1 8 4 OSO -
31.05.2020 05:00:00 9,9 7,8 8 4 SSO -
31.05.2020 04:00:00 9,2 7,3 2 1 OSO -
31.05.2020 03:00:00 9,5 7,6 0 0 N -
31.05.2020 02:00:00 10,2 8,3 2 1 OSO 0,0
31.05.2020 01:00:00 9,9 7,6 0 0 N -
31.05.2020 00:00:00 10,2 7,6 2 1 SO -
30.05.2020 23:00:00 10,7 7,9 0 0 N -
30.05.2020 22:00:00 10,4 7,8 0 0 N -
30.05.2020 21:00:00 10,9 7,9 4 2 ONO -
30.05.2020 20:00:00 12,9 8,9 2 1 O -
30.05.2020 19:00:00 14,9 10,7 0 0 N -
30.05.2020 18:00:00 15,5 11,0 0 0 N -
30.05.2020 17:00:00 14,0 10,9 2 1 O -
30.05.2020 16:00:00 10,4 7,1 15 8 SSO -
30.05.2020 15:00:00 13,1 10,4 0 0 N -
30.05.2020 14:00:00 13,0 9,6 8 4 SE 0,0
30.05.2020 13:00:00 14,9 11,4 4 2 SE -
30.05.2020 12:00:00 13,8 8,6 0 0 N -
30.05.2020 11:00:00 15,8 10,3 4 2 ESE -
30.05.2020 10:00:00 14,7 9,4 0 0 N -
30.05.2020 09:00:00 12,8 8,2 0 0 N -
30.05.2020 08:00:00 11,6 6,5 0 0 N 0,0
30.05.2020 07:00:00 10,9 4,9 0 0 N -
30.05.2020 06:00:00 10,8 4,9 0 0 N -
30.05.2020 05:00:00 10,7 3,2 0 0 N -
30.05.2020 04:00:00 10,2 3,6 0 0 N -
30.05.2020 03:00:00 9,6 2,1 0 0 N -
30.05.2020 02:00:00 8,8 4,4 0 0 N 0,0
30.05.2020 01:00:00 9,1 5,2 0 0 N -
30.05.2020 00:00:00 9,0 4,2 0 0 N -
29.05.2020 23:00:00 9,4 3,7 0 0 N -
29.05.2020 22:00:00 10,1 4,6 0 0 N -
29.05.2020 21:00:00 9,2 4,9 0 0 N -
29.05.2020 20:00:00 11,1 6,4 0 0 N 0,0
29.05.2020 19:00:00 13,7 8,3 2 1 O -

tt = Temperatura
td = dewpoint
ff = velocità del vento
dd = direzione del vento
rr = precipitazioni

Stazioni seguenti

WeatherPro
AMSI
MeteoEarth